Total_Precipitation_Accumulation
1.80 1.85 1.77 1.72 1.69 1.54 1.45 1.46 1.50 1.39 1.25 1.02 0.86 0.77 0.78 0.77 0.84 0.65 0.53 0.52 0.42 0.32 0.26 0.22 0.23 0.23 0.23 0.24 0.24 0.24 0.24 0.22 0.21 0.23 0.28 0.34 0.39 0.41
1.77 1.86 1.86 1.87 1.89 1.79 1.62 1.53 1.42 1.38 1.31 1.11 0.90 0.76 0.88 0.86 0.90 0.68 0.60 0.65 0.52 0.43 0.33 0.28 0.26 0.26 0.24 0.21 0.17 0.14 0.13 0.13 0.14 0.17 0.29 0.50 0.59 0.57
1.59 1.67 1.77 1.87 1.97 1.97 1.92 1.75 1.59 1.52 1.43 1.27 1.03 0.80 0.88 0.96 0.93 0.80 0.69 0.58 0.52 0.49 0.39 0.34 0.30 0.27 0.28 0.28 0.23 0.18 0.14 0.11 0.10 0.13 0.20 0.34 0.63 0.73
1.38 1.36 1.46 1.58 1.70 1.85 1.90 1.84 1.79 1.67 1.58 1.52 1.32 1.03 0.87 0.88 0.91 0.94 0.84 0.68 0.61 0.62 0.55 0.46 0.40 0.34 0.31 0.29 0.26 0.23 0.18 0.15 0.12 0.12 0.15 0.18 0.27 0.41
1.16 1.14 1.16 1.27 1.40 1.52 1.61 1.67 1.76 1.79 1.74 1.63 1.51 1.32 1.06 0.97 0.98 0.96 0.94 0.96 0.79 0.72 0.70 0.62 0.57 0.50 0.46 0.41 0.35 0.29 0.25 0.23 0.19 0.16 0.14 0.14 0.16 0.22
0.92 0.93 0.97 1.00 1.06 1.18 1.34 1.52 1.67 1.77 1.81 1.76 1.63 1.41 1.24 1.15 1.09 1.07 1.09 1.09 1.02 0.88 0.80 0.74 0.73 0.65 0.58 0.51 0.45 0.39 0.35 0.34 0.32 0.28 0.22 0.18 0.15 0.15
0.74 0.66 0.67 0.74 0.75 0.80 0.87 1.14 1.37 1.53 1.63 1.69 1.62 1.44 1.23 1.13 1.02 1.03 1.09 1.17 1.18 1.10 1.00 0.84 0.76 0.70 0.66 0.62 0.54 0.45 0.39 0.35 0.34 0.33 0.31 0.28 0.25 0.22
0.65 0.60 0.59 0.64 0.57 0.51 0.53 0.73 1.01 1.17 1.32 1.45 1.49 1.36 1.22 1.11 1.10 1.08 1.05 1.04 1.04 0.96 0.89 0.90 0.83 0.78 0.72 0.68 0.70 0.64 0.55 0.47 0.41 0.37 0.37 0.39 0.38 0.37
0.70 0.70 0.64 0.60 0.69 0.59 0.54 0.57 0.65 0.77 0.90 1.09 1.27 1.29 1.36 1.25 1.11 1.02 0.98 0.97 0.94 0.93 0.86 0.84 0.79 0.74 0.69 0.67 0.73 0.70 0.67 0.62 0.55 0.49 0.45 0.43 0.43 0.44
0.76 0.80 0.83 0.77 0.73 0.80 0.75 0.77 0.72 0.65 0.73 0.65 0.80 1.12 1.22 1.25 1.18 1.12 1.11 1.02 0.93 0.90 0.83 0.84 0.83 0.76 0.65 0.60 0.63 0.58 0.55 0.55 0.57 0.58 0.58 0.57 0.53 0.50
0.74 0.83 0.84 0.76 0.80 0.86 0.95 1.01 0.93 0.78 0.92 0.93 0.84 0.90 0.99 1.01 1.05 1.07 1.08 0.99 0.93 0.87 0.72 0.64 0.65 0.67 0.68 0.64 0.58 0.55 0.49 0.46 0.46 0.45 0.43 0.42 0.42 0.44
0.75 0.80 0.94 0.83 0.80 0.79 0.84 0.95 0.94 0.82 0.72 0.75 0.72 0.63 0.56 0.63 0.78 0.86 1.03 1.06 0.98 0.88 0.71 0.60 0.61 0.58 0.61 0.58 0.50 0.47 0.44 0.43 0.41 0.38 0.36 0.32 0.29 0.28
0.87 0.91 0.88 0.91 0.73 0.69 0.71 0.71 0.76 0.74 0.72 0.78 0.84 0.75 0.65 0.60 0.61 0.63 0.74 0.84 0.90 0.81 0.69 0.57 0.57 0.53 0.47 0.43 0.43 0.44 0.44 0.41 0.37 0.36 0.35 0.33 0.31 0.26
0.78 0.77 0.74 0.79 0.62 0.53 0.50 0.56 0.60 0.59 0.63 0.76 0.79 0.77 0.76 0.71 0.65 0.62 0.62 0.67 0.72 0.74 0.68 0.57 0.52 0.48 0.42 0.37 0.38 0.42 0.41 0.38 0.34 0.32 0.30 0.34 0.34 0.34
0.51 0.58 0.58 0.56 0.49 0.43 0.47 0.50 0.51 0.53 0.59 0.63 0.67 0.65 0.64 0.66 0.65 0.64 0.61 0.58 0.56 0.51 0.48 0.47 0.49 0.50 0.46 0.40 0.35 0.38 0.40 0.36 0.32 0.31 0.30 0.28 0.26 0.28
0.40 0.40 0.39 0.39 0.40 0.41 0.44 0.47 0.51 0.54 0.57 0.56 0.56 0.59 0.58 0.60 0.63 0.61 0.61 0.61 0.63 0.59 0.55 0.53 0.51 0.51 0.51 0.46 0.40 0.35 0.37 0.39 0.36 0.33 0.29 0.28 0.26 0.25
0.49 0.41 0.37 0.38 0.40 0.47 0.48 0.45 0.47 0.50 0.51 0.50 0.51 0.52 0.50 0.53 0.56 0.53 0.52 0.54 0.54 0.52 0.53 0.55 0.54 0.52 0.51 0.50 0.51 0.49 0.49 0.49 0.47 0.44 0.38 0.33 0.29 0.28
0.48 0.54 0.55 0.59 0.61 0.60 0.57 0.48 0.42 0.41 0.45 0.50 0.50 0.49 0.48 0.47 0.50 0.51 0.49 0.49 0.48 0.43 0.38 0.38 0.42 0.46 0.48 0.45 0.40 0.41 0.47 0.49 0.52 0.52 0.45 0.38 0.33 0.32
0.44 0.59 0.59 0.57 0.53 0.50 0.46 0.40 0.34 0.29 0.29 0.36 0.45 0.52 0.51 0.50 0.53 0.55 0.51 0.45 0.43 0.43 0.39 0.32 0.30 0.34 0.37 0.35 0.33 0.30 0.32 0.37 0.40 0.40 0.40 0.38 0.35 0.35
0.38 0.45 0.45 0.43 0.36 0.29 0.22 0.17 0.16 0.15 0.15 0.19 0.22 0.31 0.46 0.55 0.62 0.63 0.62 0.60 0.57 0.53 0.48 0.40 0.31 0.25 0.25 0.25 0.22 0.20 0.20 0.24 0.30 0.30 0.30 0.31 0.30 0.30
0.17 0.18 0.17 0.18 0.16 0.13 0.10 0.07 0.06 0.06 0.07 0.09 0.12 0.16 0.24 0.36 0.52 0.61 0.63 0.66 0.63 0.62 0.59 0.52 0.47 0.45 0.36 0.32 0.29 0.22 0.19 0.19 0.19 0.19 0.19 0.20 0.20 0.19
0.08 0.07 0.06 0.06 0.07 0.06 0.05 0.05 0.05 0.05 0.05 0.08 0.13 0.18 0.26 0.31 0.35 0.43 0.53 0.56 0.51 0.47 0.48 0.49 0.50 0.49 0.44 0.41 0.37 0.30 0.23 0.20 0.21 0.23 0.20 0.18 0.15 0.15
0.06 0.06 0.05 0.04 0.03 0.05 0.05 0.04 0.04 0.04 0.05 0.06 0.09 0.15 0.22 0.30 0.34 0.35 0.36 0.39 0.42 0.44 0.44 0.44 0.44 0.43 0.43 0.45 0.45 0.41 0.33 0.28 0.27 0.29 0.31 0.38 0.33 0.23